User: anonymous   Login
Location: Unspecified
(0.0000°N, 0.0000°E)
Time: 03:36:30
(UTC+00:00)
Language:

Mayak - Orbit

View from above orbital plane
View from above orbital plane
View from above satellite
View from above satellite

Ground track
Ground track

The orbit data is extracted from the following two-line orbital elements,

1 42830U 17042F   18168.77266858  .00000353  00000-0  40844-4 0  9999
2 42830  97.5982  71.2783 0013780 188.6418 171.4565 14.91304032 50429
Epoch (UTC): 17 June 2018 18:32:38
Eccentricity: 0.0013780
inclination: 97.5982°
perigee height: 584 km
apogee height: 603 km
right ascension of ascending node: 71.2783°
argument of perigee: 188.6418°
revolutions per day: 14.91304032
mean anomaly at epoch: 171.4565°
orbit number at epoch: 5042

The dashed part of the orbit path shows where the satellite is in the earth's shadow,  

DLR